[[{"header":{"parameterUnit":"m.s-1","parameterCategory":1,"la1":30.2992,"la2":30.254,"lo1":-89.0895,"lo2":-89.0443,"dy":0.0025,"dx":0.0025,"nx":19,"ny":19,"refTime":"2026-03-13T03:00:00:Z","depth":0,"parameterNumber":2,"parameterNumberName":"U-component_of_WINDS"},"data":[0,0,0,-0.8681,-0.8684,-0.8863,-0.8863,-0.9078,-0.908,0,0,0,0,0,0,0,0,0,0,0,-0.8616,-0.8617,-0.8681,-0.8685,-0.8863,-0.8864,-0.9077,-0.908,0,0,0,0,0,0,0,0,0,0,0,-0.8616,-0.8617,-0.8618,-0.8685,-0.8862,-0.8864,-0.9077,-0.8948,0,0,0,0,0,0,0,0,0,0,-0.8778,-0.8705,-0.8617,-0.8618,-0.8686,-0.8862,-0.8864,-0.8943,-0.8956,-0.899,0,-0.9013,0,-0.9049,-0.9093,-0.9093,0,0,0,-0.8695,-0.8694,-0.8752,-0.8618,-0.8688,-0.8862,-0.8785,-0.8951,-0.8966,-0.9008,-0.9017,-0.9025,-0.9053,-0.9094,-0.9095,-0.9247,-0.9247,0,0,-0.8685,-0.8643,-0.8741,-0.8762,-0.8729,-0.8779,-0.8791,-0.896,-0.8968,-0.9017,-0.903,-0.9056,-0.9095,-0.9097,-0.9247,-0.9247,0,0,0,-0.865,-0.8635,-0.869,-0.8752,-0.8785,-0.8784,-0.8797,-0.896,-0.8981,-0.9033,-0.9059,-0.9096,-0.9099,-0.9246,-0.9247,-0.9216,0,0,0,-0.8645,-0.8615,-0.8685,-0.8661,-0.8782,-0.8874,-0.8793,-0.897,-0.899,-0.9058,-0.9096,-0.9101,-0.9246,-0.9247,-0.9216,-0.9209,0,0,0,-0.8609,-0.8611,-0.8632,-0.8658,-0.8733,-0.8872,-0.8904,-0.8975,-0.9006,-0.9093,-0.9101,-0.9246,-0.9246,-0.9216,-0.9209,-0.9237,0,0,0,-0.8559,-0.8603,-0.8631,-0.8691,-0.8731,-0.885,-0.8903,-0.8995,-0.9067,-0.9097,-0.9246,-0.9247,-0.9216,-0.921,-0.9236,-0.9251,-0.9253,0,0,-0.8591,-0.8606,-0.8644,-0.8674,-0.8777,-0.8827,-0.8928,-0.9035,-0.9085,-0.9191,-0.9195,-0.9216,-0.921,-0.9236,-0.9278,-0.9279,0,0,0,-0.864,-0.8668,-0.8704,-0.8768,-0.885,-0.892,-0.9016,-0.9056,-0.9148,-0.9129,-0.9234,-0.9232,-0.925,-0.9259,-0.926,-0.9278,-0.9249,-0.9249,-0.9249,-0.8625,-0.8683,-0.8752,-0.8832,-0.8894,-0.8992,-0.905,-0.9121,-0.9164,-0.9188,-0.922,-0.9237,-0.9246,-0.9247,-0.9266,-0.9232,-0.9232,-0.9232,-0.9232,-0.8678,-0.8726,-0.878,-0.8866,-0.8928,-0.9003,-0.9101,-0.9128,-0.9209,-0.9218,-0.9237,-0.9242,-0.9247,-0.9266,-0.923,-0.923,-0.9231,-0.9231,-0.9231,-0.8675,-0.8708,-0.8754,-0.8854,-0.8925,-0.9006,-0.908,-0.9136,-0.9189,-0.9207,-0.9248,-0.9249,-0.9257,-0.9222,-0.9222,-0.9223,-0.9223,-0.9223,-0.9223,-0.8653,-0.8706,-0.876,-0.885,-0.8899,-0.8971,-0.9071,-0.9123,-0.9195,-0.923,-0.923,-0.9271,-0.9235,-0.9225,-0.9224,-0.9224,-0.9224,-0.9223,-0.9223,-0.8685,-0.8687,-0.8769,-0.8818,-0.893,-0.8998,-0.9067,-0.9167,-0.9218,-0.9254,-0.9291,-0.9255,-0.9275,-0.9275,-0.9267,-0.9277,-0.9277,-0.9277,-0.9277,-0.8682,-0.8697,-0.8795,-0.887,-0.895,-0.9021,-0.9117,-0.9197,-0.928,-0.9316,-0.9323,-0.9317,-0.9314,-0.9336,-0.9335,-0.9328,-0.9353,-0.9354,-0.9354,-0.8706,-0.8731,-0.88,-0.8878,-0.897,-0.9048,-0.914,-0.9228,-0.9323,-0.9358,-0.9346,-0.9342,-0.9334,-0.9328,-0.9362,-0.9358,-0.9348,0,0]},{"header":{"parameterUnit":"m.s-1","parameterCategory":1,"la1":30.2992,"la2":30.254,"lo1":-89.0895,"lo2":-89.0443,"dy":0.0025,"dx":0.0025,"nx":19,"ny":19,"refTime":"2026-03-13T03:00:00:Z","depth":0,"parameterNumber":3,"parameterNumberName":"V-component_of_WINDS"},"data":[0,0,0,0.2289,0.2289,0.2286,0.2286,0.2276,0.2276,0,0,0,0,0,0,0,0,0,0,0,0.2287,0.2286,0.2289,0.2289,0.2286,0.2286,0.2276,0.2276,0,0,0,0,0,0,0,0,0,0,0,0.2287,0.2287,0.2286,0.2289,0.2286,0.2286,0.2276,0.228,0,0,0,0,0,0,0,0,0,0,0.2284,0.2279,0.2287,0.2286,0.2289,0.2286,0.2286,0.228,0.228,0.2275,0,0.2269,0,0.2272,0.2274,0.2274,0,0,0,0.2291,0.2279,0.2282,0.2286,0.2289,0.2286,0.2288,0.228,0.2279,0.2274,0.2269,0.2269,0.2272,0.2274,0.2274,0.2239,0.2238,0,0,0.2291,0.2284,0.2282,0.2281,0.2282,0.2288,0.2288,0.228,0.2274,0.2269,0.2269,0.2272,0.2274,0.2274,0.2239,0.2238,0,0,0,0.229,0.2284,0.2287,0.2281,0.2281,0.2288,0.2288,0.2275,0.2276,0.2269,0.2272,0.2274,0.2274,0.2239,0.2239,0.2218,0,0,0,0.229,0.2284,0.2287,0.2282,0.2281,0.2278,0.2282,0.2277,0.2276,0.2272,0.2274,0.2274,0.2239,0.2239,0.2219,0.2209,0,0,0,0.2288,0.2283,0.2282,0.2282,0.228,0.2278,0.228,0.2277,0.2278,0.2274,0.2274,0.224,0.2239,0.222,0.2211,0.2197,0,0,0,0.2283,0.2263,0.2281,0.2261,0.228,0.2266,0.228,0.2269,0.2264,0.2274,0.2239,0.2239,0.2221,0.2212,0.2198,0.2183,0.2177,0,0,0.2254,0.2259,0.2248,0.2264,0.2245,0.2267,0.2245,0.2247,0.2253,0.2243,0.2242,0.2219,0.2211,0.2197,0.2145,0.214,0,0,0,0.2236,0.2227,0.2224,0.2219,0.2221,0.2221,0.2227,0.2228,0.222,0.2246,0.2211,0.2207,0.2199,0.2192,0.2188,0.2181,0.2236,0.2236,0.2236,0.2182,0.2193,0.2174,0.2184,0.2179,0.2187,0.2183,0.2186,0.2196,0.2188,0.2184,0.2152,0.2144,0.214,0.2133,0.2179,0.2179,0.2178,0.2178,0.214,0.2129,0.2145,0.2133,0.2143,0.2133,0.214,0.2148,0.2139,0.2155,0.2149,0.2163,0.2134,0.2129,0.2177,0.2177,0.2177,0.2178,0.2178,0.2105,0.2101,0.2104,0.2099,0.2094,0.2105,0.2096,0.2106,0.2116,0.211,0.2107,0.2107,0.2108,0.2108,0.2108,0.2108,0.2108,0.2108,0.2107,0.2066,0.207,0.2062,0.2063,0.2062,0.2062,0.2071,0.207,0.2071,0.2079,0.2079,0.209,0.213,0.2139,0.2106,0.2106,0.2106,0.2106,0.2107,0.2016,0.203,0.2017,0.2016,0.2019,0.2013,0.2028,0.2025,0.2026,0.2021,0.2034,0.2063,0.2069,0.2073,0.208,0.2033,0.2033,0.2033,0.2033,0.1986,0.1991,0.198,0.1978,0.1977,0.1989,0.1974,0.1981,0.199,0.1991,0.2,0.2012,0.2015,0.2019,0.2024,0.2031,0.1972,0.1972,0.1972,0.1955,0.1961,0.1946,0.1956,0.196,0.1962,0.1948,0.1945,0.1958,0.197,0.1992,0.1995,0.2014,0.2019,0.2029,0.2036,0.2049,0,0]}]]